This is the latest recevied weather packets stored in our database for station/object HB0PJ-13. If no packets are shown the sender has not sent any weather packets the latest 10 day(s).
| Time | Temp. | Humidity | Pressure | Rain* | Wind** | Luminosity | Snow |
|---|---|---|---|---|---|---|---|
| 1778180766 | 14.44° C | 60% | 958.7 hPa | - | - | 0 W/m² | - |
| 1778180166 | 14.44° C | 60% | 958.7 hPa | - | - | 0 W/m² | - |
| 1778179926 | 14.44° C | 60% | 958.7 hPa | - | - | 0 W/m² | - |
| 1778179806 | 15° C | 60% | 958.7 hPa | - | - | 0 W/m² | - |
| 1778179446 | 15° C | 60% | 958.7 hPa | - | - | 0 W/m² | - |
| 1778179086 | 15° C | 60% | 958.6 hPa | - | - | 0 W/m² | - |
| 1778178846 | 15° C | 60% | 958.5 hPa | - | - | 1 W/m² | - |
| 1778178726 | 15° C | 60% | 958.5 hPa | - | - | 1 W/m² | - |
| 1778178486 | 15° C | 60% | 958.5 hPa | - | - | 1 W/m² | - |
| 1778178366 | 15° C | 59% | 958.5 hPa | - | - | 1 W/m² | - |
| 1778178006 | 15° C | 59% | 958.5 hPa | - | - | 2 W/m² | - |
| 1778177526 | 15.56° C | 56% | 958.4 hPa | - | - | 2 W/m² | - |
| 1778177406 | 15.56° C | 56% | 958.5 hPa | - | - | 2 W/m² | - |
| 1778177166 | 15.56° C | 52% | 958.3 hPa | - | - | 2 W/m² | - |
| 1778176926 | 15.56° C | 52% | 958.2 hPa | - | - | 3 W/m² | - |
| 1778176806 | 15.56° C | 52% | 958.3 hPa | - | - | 3 W/m² | - |
| 1778176566 | 15.56° C | 52% | 958.3 hPa | - | - | 3 W/m² | - |
| 1778176326 | 15.56° C | 51% | 958.2 hPa | - | - | 4 W/m² | - |
| 1778175726 | 15.56° C | 51% | 958.2 hPa | - | - | 5 W/m² | - |
| 1778175606 | 16.11° C | 51% | 958.1 hPa | - | - | 5 W/m² | - |
| 1778175486 | 16.11° C | 50% | 958.1 hPa | - | - | 5 W/m² | - |
| 1778175245 | 16.67° C | 50% | 958.1 hPa | - | - | 6 W/m² | - |
| 1778175006 | 17.22° C | 49% | 958.1 hPa | - | - | 9 W/m² | - |
| 1778174646 | 16.11° C | 50% | 958.1 hPa | - | - | 22 W/m² | - |
| 1778174406 | 16.67° C | 51% | 958 hPa | - | - | 19 W/m² | - |
* Rain since midnight (hover to see other rain measurements)
** Current wind speed in m/s (hover to see current wind gust speed)